| time (UTC) | temp F | wind direction | speed MPH | gust MPH | rain 1hr in | rain 24hr in | rain mn in | humidity % | barometer mb |
| 20260906015356 | 83 | 198 | 3.0 | 5.0 | 0.00 | 0.40 | 0.40 | 87 | 1013.7 |
| 20260906014851 | 83 | 149 | 3.0 | 3.0 | 0.00 | 0.40 | 0.40 | 87 | 1013.8 |
| 20260906014351 | 83 | 169 | 2.0 | 2.0 | 0.00 | 0.40 | 0.40 | 87 | 1014.1 |
| 20260906013847 | 83 | 272 | 3.0 | 3.0 | 0.00 | 0.40 | 0.40 | 87 | 1013.9 |
| 20260906013342 | 83 | 159 | 2.0 | 2.0 | 0.00 | 0.40 | 0.40 | 87 | 1013.7 |
| 20260906012838 | 83 | 167 | 2.0 | 2.0 | 0.00 | 0.40 | 0.40 | 87 | 1013.8 |
| 20260906012333 | 83 | 190 | 3.0 | 3.0 | 0.00 | 0.40 | 0.40 | 86 | 1013.8 |
| 20260906011832 | 83 | 211 | 3.0 | 3.0 | 0.00 | 0.40 | 0.40 | 87 | 1013.8 |
| 20260906011327 | 83 | 155 | 2.0 | 5.0 | 0.00 | 0.40 | 0.40 | 87 | 1013.7 |
| 20260906010823 | 83 | 289 | 5.0 | 6.0 | 0.00 | 0.40 | 0.40 | 87 | 1013.7 |
| 20260906010319 | 83 | 276 | 5.0 | 6.0 | 0.00 | 0.40 | 0.40 | 87 | 1013.8 |
| 20260906005814 | 84 | 266 | 5.0 | 7.0 | 0.00 | 0.40 | 0.40 | 87 | 1013.8 |
| 20260906005313 | 83 | 159 | 3.0 | 3.0 | 0.00 | 0.40 | 0.40 | 87 | 1013.9 |
| 20260906004812 | 84 | 187 | 3.0 | 5.0 | 0.00 | 0.40 | 0.40 | 86 | 1013.7 |
| 20260906004312 | 84 | 244 | 3.0 | 5.0 | 0.00 | 0.40 | 0.40 | 86 | 1013.5 |
| 20260906003808 | 83 | 270 | 4.0 | 5.0 | 0.00 | 0.40 | 0.40 | 86 | 1013.7 |
| 20260906003303 | 83 | 151 | 2.0 | 3.0 | 0.00 | 0.40 | 0.40 | 87 | 1013.5 |
| 20260906002759 | 84 | 277 | 3.0 | 3.0 | 0.00 | 0.40 | 0.40 | 87 | 1013.8 |
| 20260906002258 | 83 | 157 | 2.0 | 2.0 | 0.00 | 0.40 | 0.40 | 88 | 1013.7 |
| 20260906001754 | 83 | 128 | 0.0 | 0.0 | 0.00 | 0.40 | 0.40 | 88 | 1013.8 |
| 20260906001248 | 83 | 127 | 1.0 | 1.0 | 0.00 | 0.40 | 0.40 | 88 | 1013.3 |
| 20260906000743 | 83 | 146 | 1.0 | 2.0 | 0.00 | 0.40 | 0.40 | 88 | 1013.6 |
| 20260906000238 | 84 | 126 | 0.0 | 0.0 | 0.00 | 0.40 | 0.40 | 88 | 1013.9 |
| 20260905235733 | 83 | 134 | 0.0 | 1.0 | 0.00 | 0.40 | 0.40 | 88 | 1014.1 |
| 20260905235233 | 83 | 121 | 0.0 | 1.0 | 0.00 | 0.40 | 0.40 | 88 | 1013.9 |
| 20260905234728 | 83 | 117 | 0.0 | 0.0 | 0.00 | 0.40 | 0.40 | 89 | 1014.1 |
| 20260905234224 | 83 | 117 | 0.0 | 0.0 | 0.00 | 0.40 | 0.40 | 88 | 1013.8 |
| 20260905233719 | 83 | 115 | 0.0 | 0.0 | 0.00 | 0.40 | 0.40 | 89 | 1013.8 |
| 20260905233218 | 83 | 119 | 0.0 | 0.0 | 0.00 | 0.40 | 0.40 | 89 | 1013.9 |
| 20260905232713 | 83 | 117 | 0.0 | 0.0 | 0.00 | 0.40 | 0.40 | 88 | 1013.8 |
| 20260905232209 | 83 | 114 | 0.0 | 0.0 | 0.00 | 0.40 | 0.40 | 89 | 1013.6 |
| 20260905231705 | 83 | 99 | 0.0 | 0.0 | 0.00 | 0.40 | 0.40 | 89 | 1013.5 |
| 20260905231200 | 83 | 113 | 0.0 | 0.0 | 0.00 | 0.40 | 0.40 | 89 | 1013.6 |
| 20260905230655 | 84 | 114 | 0.0 | 0.0 | 0.00 | 0.40 | 0.40 | 88 | 1013.5 |
| 20260905230154 | 84 | 113 | 0.0 | 0.0 | 0.00 | 0.40 | 0.40 | 88 | 1013.6 |
| 20260905225653 | 84 | 114 | 0.0 | 0.0 | 0.00 | 0.40 | 0.40 | 88 | 1013.4 |
| 20260905225148 | 84 | 117 | 0.0 | 0.0 | 0.00 | 0.40 | 0.40 | 88 | 1013.4 |
| 20260905224647 | 84 | 117 | 0.0 | 0.0 | 0.00 | 0.40 | 0.40 | 89 | 1013.3 |
| 20260905224142 | 85 | 114 | 0.0 | 0.0 | 0.00 | 0.40 | 0.40 | 87 | 1013.8 |
| 20260905223639 | 85 | 113 | 0.0 | 0.0 | 0.00 | 0.40 | 0.40 | 87 | 1013.9 |
| 20260905223135 | 85 | 107 | 0.0 | 0.0 | 0.00 | 0.40 | 0.40 | 87 | 1013.7 |
| 20260905222631 | 85 | 117 | 0.0 | 0.0 | 0.00 | 0.40 | 0.40 | 87 | 1013.7 |
| 20260905222125 | 85 | 121 | 0.0 | 0.0 | 0.00 | 0.40 | 0.40 | 88 | 1013.7 |
| 20260905221621 | 86 | 119 | 0.0 | 0.0 | 0.00 | 0.40 | 0.40 | 88 | 1013.9 |
| 20260905221118 | 85 | 116 | 0.0 | 0.0 | 0.00 | 0.40 | 0.40 | 87 | 1014.2 |
| 20260905220613 | 86 | 121 | 0.0 | 0.0 | 0.00 | 0.40 | 0.40 | 87 | 1014.2 |
| 20260905220109 | 86 | 121 | 0.0 | 0.0 | 0.00 | 0.40 | 0.40 | 86 | 1014.3 |
| 20260905215608 | 86 | 122 | 0.0 | 0.0 | 0.00 | 0.40 | 0.40 | 86 | 1014.1 |
| 20260905215104 | 86 | 123 | 0.0 | 0.0 | 0.00 | 0.40 | 0.40 | 87 | 1014.3 |
| 20260905214601 | 85 | 127 | 0.0 | 1.0 | 0.00 | 0.40 | 0.40 | 86 | 1014.3 |
| 20260905214101 | 86 | 176 | 3.0 | 3.0 | 0.00 | 0.40 | 0.40 | 87 | 1014.1 |
| 20260905213601 | 85 | 124 | 0.0 | 0.0 | 0.00 | 0.40 | 0.40 | 88 | 1014.1 |
| 20260905213057 | 85 | 116 | 0.0 | 0.0 | 0.00 | 0.40 | 0.40 | 88 | 1013.9 |
| 20260905212557 | 85 | 119 | 0.0 | 0.0 | 0.00 | 0.40 | 0.40 | 89 | 1014.2 |
| 20260905212056 | 85 | 116 | 0.0 | 0.0 | 0.00 | 0.40 | 0.40 | 88 | 1014.3 |
| 20260905211552 | 85 | 113 | 0.0 | 0.0 | 0.00 | 0.40 | 0.40 | 88 | 1014.5 |
| 20260905211047 | 85 | 114 | 0.0 | 0.0 | 0.00 | 0.40 | 0.40 | 88 | 1014.6 |
| 20260905210543 | 85 | 103 | 2.0 | 2.0 | 0.00 | 0.40 | 0.40 | 87 | 1014.7 |
| 20260905210038 | 85 | 110 | 0.0 | 0.0 | 0.00 | 0.40 | 0.40 | 89 | 1014.5 |
| 20260905205537 | 84 | 113 | 0.0 | 0.0 | 0.00 | 0.40 | 0.40 | 89 | 1014.2 |
| 20260905205037 | 85 | 117 | 0.0 | 0.0 | 0.05 | 0.40 | 0.40 | 89 | 1014.1 |
| 20260905204532 | 84 | 110 | 0.0 | 0.0 | 0.05 | 0.40 | 0.40 | 89 | 1014.3 |
| 20260905204026 | 84 | 67 | 1.0 | 1.0 | 0.05 | 0.40 | 0.40 | 90 | 1014.4 |
| 20260905203521 | 83 | 109 | 0.0 | 0.0 | 0.00 | 0.39 | 0.39 | 90 | 1014.4 |
| 20260905203016 | 83 | 121 | 0.0 | 0.0 | 0.00 | 0.39 | 0.39 | 91 | 1014.2 |
| 20260905202511 | 83 | 121 | 0.0 | 0.0 | 0.00 | 0.39 | 0.39 | 91 | 1014.5 |
| 20260905202007 | 82 | 121 | 0.0 | 0.0 | 0.00 | 0.39 | 0.39 | 90 | 1014.6 |
| 20260905201503 | 81 | 121 | 0.0 | 0.0 | 0.00 | 0.39 | 0.39 | 91 | 1014.2 |
| 20260905201002 | 82 | 121 | 0.0 | 0.0 | 0.00 | 0.39 | 0.39 | 91 | 1014.6 |
| 20260905200457 | 82 | 121 | 0.0 | 0.0 | 0.00 | 0.39 | 0.39 | 92 | 1014.6 |
| 20260905195956 | 81 | 123 | 0.0 | 0.0 | 0.00 | 0.39 | 0.39 | 92 | 1014.5 |
| 20260905195451 | 81 | 122 | 0.0 | 0.0 | 0.00 | 0.39 | 0.39 | 92 | 1014.5 |
| 20260905194947 | 83 | 122 | 0.0 | 0.0 | 0.00 | 0.39 | 0.39 | 92 | 1014.9 |
| 20260905194446 | 83 | 101 | 0.0 | 0.0 | 0.00 | 0.39 | 0.39 | 93 | 1014.9 |
| 20260905193941 | 83 | 110 | 0.0 | 0.0 | 0.00 | 0.39 | 0.39 | 93 | 1015.2 |
| 20260905193441 | 82 | 115 | 0.0 | 0.0 | 0.24 | 0.39 | 0.39 | 92 | 1014.9 |
| 20260905192936 | 80 | 108 | 0.0 | 0.0 | 1.09 | 0.39 | 0.39 | 93 | 1015.3 |
| 20260905192431 | 81 | 98 | 1.0 | 1.0 | 1.32 | 0.35 | 0.35 | 92 | 1015.4 |
| 20260905191926 | 82 | 82 | 1.0 | 1.0 | 0.78 | 0.21 | 0.21 | 92 | 1015.3 |
| 20260905191425 | 82 | 119 | 1.0 | 1.0 | 0.59 | 0.13 | 0.13 | 92 | 1015.4 |
| 20260905190920 | 84 | 88 | 1.0 | 1.0 | 0.38 | 0.07 | 0.07 | 91 | 1015.4 |
| 20260905190418 | 84 | 94 | 1.0 | 1.0 | 0.24 | 0.04 | 0.04 | 90 | 1015.4 |
| 20260905185916 | 85 | 120 | 0.0 | 0.0 | 0.05 | 0.01 | 0.01 | 88 | 1015.3 |
| 20260905185412 | 85 | 129 | 0.0 | 1.0 | 0.00 | 0.00 | 0.00 | 86 | 1015.5 |
| 20260905184911 | 85 | 175 | 2.0 | 2.0 | 0.00 | 0.00 | 0.00 | 84 | 1015.6 |
| 20260905184410 | 85 | 140 | 0.0 | 0.0 | 0.00 | 0.00 | 0.00 | 84 | 1015.5 |
| 20260905183909 | 85 | 207 | 3.0 | 5.0 | 0.00 | 0.00 | 0.00 | 85 | 1015.6 |
| 20260905183359 | 86 | 142 | 1.0 | 1.0 | 0.00 | 0.00 | 0.00 | 85 | 1015.6 |
| 20260905182854 | 86 | 188 | 2.0 | 2.0 | 0.00 | 0.00 | 0.00 | 84 | 1015.6 |
| 20260905182353 | 87 | 290 | 3.0 | 5.0 | 0.00 | 0.00 | 0.00 | 82 | 1015.7 |
| 20260905181849 | 87 | 249 | 3.0 | 5.0 | 0.00 | 0.00 | 0.00 | 82 | 1015.8 |
| 20260905181349 | 86 | 279 | 3.0 | 5.0 | 0.00 | 0.00 | 0.00 | 83 | 1016.2 |
| 20260905180848 | 87 | 98 | 0.0 | 0.0 | 0.00 | 0.00 | 0.00 | 80 | 1015.7 |
| 20260905180342 | 87 | 200 | 2.0 | 2.0 | 0.00 | 0.00 | 0.00 | 78 | 1015.9 |
| 20260905175832 | 89 | 272 | 3.0 | 3.0 | 0.00 | 0.00 | 0.00 | 77 | 1015.8 |
| 20260905175332 | 89 | 275 | 5.0 | 6.0 | 0.00 | 0.00 | 0.00 | 76 | 1015.8 |
| 20260905174827 | 88 | 255 | 3.0 | 5.0 | 0.00 | 0.00 | 0.00 | 76 | 1016.3 |
| 20260905174323 | 87 | 147 | 1.0 | 1.0 | 0.00 | 0.00 | 0.00 | 79 | 1016.0 |
| 20260905173818 | 87 | 129 | 1.0 | 1.0 | 0.00 | 0.00 | 0.00 | 80 | 1016.1 |
| 20260905173314 | 86 | 170 | 3.0 | 3.0 | 0.00 | 0.00 | 0.00 | 78 | 1016.3 |
| 20260905172814 | 87 | 167 | 2.0 | 2.0 | 0.00 | 0.00 | 0.00 | 77 | 1016.3 |
| 20260905172312 | 87 | 189 | 2.0 | 3.0 | 0.00 | 0.00 | 0.00 | 78 | 1016.3 |
| 20260905171809 | 87 | 140 | 0.0 | 0.0 | 0.00 | 0.00 | 0.00 | 80 | 1016.3 |
| 20260905171305 | 87 | 185 | 3.0 | 3.0 | 0.00 | 0.00 | 0.00 | 78 | 1016.3 |
| 20260905170801 | 87 | 243 | 3.0 | 5.0 | 0.00 | 0.00 | 0.00 | 80 | 1016.4 |
| 20260905170257 | 88 | 96 | 0.0 | 0.0 | 0.00 | 0.00 | 0.00 | 78 | 1016.5 |
| 20260905165756 | 87 | 140 | 0.0 | 0.0 | 0.00 | 0.00 | 0.00 | 79 | 1016.6 |
| 20260905165252 | 87 | 135 | 0.0 | 0.0 | 0.00 | 0.00 | 0.00 | 80 | 1016.3 |
| 20260905164752 | 86 | 155 | 0.0 | 0.0 | 0.00 | 0.00 | 0.00 | 83 | 1016.4 |
| 20260905164246 | 86 | 268 | 0.0 | 0.0 | 0.00 | 0.00 | 0.00 | 82 | 1016.7 |
| 20260905163742 | 87 | 252 | 5.0 | 6.0 | 0.00 | 0.00 | 0.00 | 81 | 1016.5 |
| 20260905163238 | 86 | 106 | 0.0 | 0.0 | 0.00 | 0.00 | 0.00 | 80 | 1016.7 |
| 20260905162734 | 85 | 138 | 0.0 | 0.0 | 0.00 | 0.00 | 0.00 | 85 | 1016.7 |
| 20260905162233 | 85 | 139 | 1.0 | 1.0 | 0.00 | 0.00 | 0.00 | 86 | 1016.5 |
| 20260905161728 | 86 | 130 | 0.0 | 0.0 | 0.00 | 0.00 | 0.00 | 84 | 1016.8 |
| 20260905161227 | 85 | 121 | 0.0 | 0.0 | 0.00 | 0.00 | 0.00 | 86 | 1016.5 |
| 20260905160725 | 86 | 126 | 0.0 | 0.0 | 0.00 | 0.00 | 0.00 | 85 | 1016.6 |
| 20260905160220 | 86 | 146 | 1.0 | 1.0 | 0.00 | 0.00 | 0.00 | 83 | 1016.6 |
| 20260905155714 | 87 | 106 | 0.0 | 0.0 | 0.00 | 0.00 | 0.00 | 82 | 1016.6 |
| 20260905155213 | 87 | 137 | 0.0 | 0.0 | 0.00 | 0.00 | 0.00 | 81 | 1016.6 |
| 20260905154708 | 86 | 234 | 0.0 | 0.0 | 0.00 | 0.00 | 0.00 | 84 | 1016.7 |
| 20260905154204 | 86 | 223 | 0.0 | 0.0 | 0.00 | 0.00 | 0.00 | 82 | 1016.7 |
| 20260905153659 | 86 | 139 | 0.0 | 0.0 | 0.00 | 0.00 | 0.00 | 80 | 1016.6 |
| 20260905153154 | 85 | 89 | 0.0 | 0.0 | 0.00 | 0.00 | 0.00 | 80 | 1016.7 |
| 20260905152649 | 85 | 1 | 3.0 | 3.0 | 0.00 | 0.00 | 0.00 | 81 | 1016.8 |
| 20260905152144 | 85 | 342 | 2.0 | 2.0 | 0.00 | 0.00 | 0.00 | 82 | 1016.7 |
| 20260905151639 | 85 | 155 | 1.0 | 2.0 | 0.00 | 0.00 | 0.00 | 83 | 1016.7 |
| 20260905151134 | 84 | 149 | 1.0 | 1.0 | 0.00 | 0.00 | 0.00 | 84 | 1016.6 |
| 20260905150629 | 85 | 137 | 1.0 | 1.0 | 0.00 | 0.00 | 0.00 | 83 | 1016.5 |
| 20260905150128 | 84 | 136 | 0.0 | 1.0 | 0.00 | 0.00 | 0.00 | 86 | 1016.8 |
| 20260905145626 | 85 | 126 | 1.0 | 1.0 | 0.00 | 0.00 | 0.00 | 84 | 1016.7 |
| 20260905145125 | 84 | 124 | 0.0 | 0.0 | 0.00 | 0.00 | 0.00 | 86 | 1016.6 |
| 20260905144620 | 84 | 117 | 0.0 | 0.0 | 0.00 | 0.00 | 0.00 | 87 | 1016.8 |
| 20260905144120 | 83 | 111 | 0.0 | 0.0 | 0.00 | 0.00 | 0.00 | 89 | 1016.6 |
| 20260905143614 | 82 | 135 | 0.0 | 1.0 | 0.00 | 0.00 | 0.00 | 89 | 1016.7 |
| 20260905143109 | 81 | 111 | 0.0 | 0.0 | 0.00 | 0.00 | 0.00 | 91 | 1016.7 |
| 20260905142607 | 81 | 122 | 0.0 | 0.0 | 0.00 | 0.00 | 0.00 | 91 | 1016.6 |
| 20260905142102 | 81 | 123 | 0.0 | 0.0 | 0.00 | 0.00 | 0.00 | 91 | 1016.7 |
| 20260905141602 | 81 | 133 | 0.0 | 1.0 | 0.00 | 0.00 | 0.00 | 91 | 1016.6 |
| 20260905141058 | 81 | 173 | 2.0 | 2.0 | 0.00 | 0.00 | 0.00 | 91 | 1016.5 |
| 20260905140553 | 81 | 159 | 2.0 | 2.0 | 0.00 | 0.00 | 0.00 | 92 | 1016.5 |
| 20260905140052 | 81 | 165 | 2.0 | 2.0 | 0.00 | 0.00 | 0.00 | 92 | 1016.7 |
| 20260905135548 | 80 | 128 | 0.0 | 0.0 | 0.00 | 0.00 | 0.00 | 92 | 1016.3 |
| 20260905135047 | 80 | 144 | 1.0 | 1.0 | 0.00 | 0.00 | 0.00 | 93 | 1016.7 |
| 20260905134543 | 79 | 190 | 2.0 | 2.0 | 0.00 | 0.00 | 0.00 | 93 | 1016.7 |
| 20260905134041 | 79 | 134 | 0.0 | 0.0 | 0.00 | 0.00 | 0.00 | 93 | 1016.5 |
| 20260905133537 | 79 | 132 | 0.0 | 0.0 | 0.00 | 0.00 | 0.00 | 94 | 1016.4 |
| 20260905133037 | 78 | 155 | 0.0 | 0.0 | 0.00 | 0.00 | 0.00 | 94 | 1016.5 |
| 20260905132537 | 78 | 135 | 0.0 | 0.0 | 0.00 | 0.00 | 0.00 | 94 | 1016.5 |
| 20260905132031 | 78 | 131 | 0.0 | 0.0 | 0.00 | 0.00 | 0.00 | 94 | 1016.4 |
| 20260905131527 | 78 | 139 | 0.0 | 0.0 | 0.00 | 0.00 | 0.00 | 95 | 1016.7 |
| 20260905131022 | 77 | 129 | 0.0 | 0.0 | 0.00 | 0.00 | 0.00 | 95 | 1016.4 |
| 20260905130521 | 77 | 130 | 0.0 | 0.0 | 0.00 | 0.00 | 0.00 | 95 | 1016.3 |
| 20260905130017 | 77 | 124 | 0.0 | 0.0 | 0.00 | 0.00 | 0.00 | 95 | 1016.4 |
| 20260905125516 | 77 | 122 | 0.0 | 0.0 | 0.00 | 0.00 | 0.00 | 95 | 1016.3 |
| 20260905125011 | 76 | 117 | 0.0 | 0.0 | 0.00 | 0.00 | 0.00 | 95 | 1016.4 |
| 20260905124508 | 76 | 116 | 0.0 | 0.0 | 0.00 | 0.00 | 0.00 | 95 | 1016.3 |
| 20260905124003 | 76 | 116 | 0.0 | 0.0 | 0.00 | 0.00 | 0.00 | 95 | 1016.1 |
| 20260905123459 | 76 | 117 | 0.0 | 0.0 | 0.00 | 0.00 | 0.00 | 95 | 1016.1 |
| 20260905122954 | 76 | 117 | 0.0 | 0.0 | 0.00 | 0.00 | 0.00 | 95 | 1016.3 |
| 20260905122449 | 76 | 113 | 0.0 | 0.0 | 0.00 | 0.00 | 0.00 | 95 | 1016.1 |
| 20260905121944 | 76 | 113 | 0.0 | 0.0 | 0.00 | 0.00 | 0.00 | 95 | 1016.1 |
| 20260905121439 | 76 | 116 | 0.0 | 0.0 | 0.00 | 0.00 | 0.00 | 95 | 1016.1 |
| 20260905120938 | 76 | 116 | 0.0 | 0.0 | 0.00 | 0.00 | 0.00 | 95 | 1016.1 |
| 20260905120428 | 76 | 116 | 0.0 | 0.0 | 0.00 | 0.00 | 0.00 | 95 | 1016.1 |
| 20260905115923 | 76 | 106 | 0.0 | 0.0 | 0.00 | 0.00 | 0.00 | 95 | 1016.0 |
| 20260905115422 | 76 | 114 | 0.0 | 0.0 | 0.00 | 0.00 | 0.00 | 95 | 1015.9 |
| 20260905114917 | 76 | 114 | 0.0 | 0.0 | 0.00 | 0.00 | 0.00 | 95 | 1015.9 |
| 20260905114416 | 76 | 114 | 0.0 | 0.0 | 0.00 | 0.00 | 0.00 | 95 | 1016.0 |
| 20260905113916 | 76 | 117 | 0.0 | 0.0 | 0.00 | 0.00 | 0.00 | 95 | 1015.9 |
| 20260905113411 | 76 | 118 | 0.0 | 0.0 | 0.00 | 0.00 | 0.00 | 95 | 1015.9 |
| 20260905112906 | 76 | 110 | 0.0 | 0.0 | 0.00 | 0.00 | 0.00 | 95 | 1015.7 |
| 20260905112402 | 76 | 110 | 0.0 | 0.0 | 0.00 | 0.00 | 0.00 | 95 | 1015.7 |
| 20260905111856 | 76 | 114 | 0.0 | 0.0 | 0.00 | 0.00 | 0.00 | 95 | 1015.6 |
| 20260905111351 | 76 | 114 | 0.0 | 0.0 | 0.00 | 0.00 | 0.00 | 95 | 1015.4 |
| 20260905110850 | 76 | 116 | 0.0 | 0.0 | 0.00 | 0.00 | 0.00 | 95 | 1015.6 |
| 20260905110344 | 76 | 113 | 0.0 | 0.0 | 0.00 | 0.00 | 0.00 | 95 | 1015.5 |
| 20260905105839 | 76 | 114 | 0.0 | 0.0 | 0.00 | 0.00 | 0.00 | 95 | 1015.4 |
| 20260905105339 | 76 | 113 | 0.0 | 0.0 | 0.00 | 0.00 | 0.00 | 95 | 1015.6 |
| 20260905104833 | 76 | 114 | 0.0 | 0.0 | 0.00 | 0.00 | 0.00 | 95 | 1015.5 |
| 20260905104330 | 76 | 114 | 0.0 | 0.0 | 0.00 | 0.00 | 0.00 | 95 | 1015.5 |
| 20260905103829 | 76 | 113 | 0.0 | 0.0 | 0.00 | 0.00 | 0.00 | 95 | 1015.6 |
| 20260905103325 | 76 | 112 | 0.0 | 0.0 | 0.00 | 0.00 | 0.00 | 95 | 1015.6 |
| 20260905102820 | 76 | 114 | 0.0 | 0.0 | 0.00 | 0.00 | 0.00 | 95 | 1015.6 |
| 20260905102317 | 76 | 114 | 0.0 | 0.0 | 0.00 | 0.00 | 0.00 | 95 | 1015.3 |
| 20260905101817 | 76 | 117 | 0.0 | 0.0 | 0.00 | 0.00 | 0.00 | 95 | 1015.6 |
| 20260905101315 | 76 | 117 | 0.0 | 0.0 | 0.00 | 0.00 | 0.00 | 95 | 1015.7 |
| 20260905100809 | 76 | 112 | 0.0 | 0.0 | 0.00 | 0.00 | 0.00 | 95 | 1015.7 |
| 20260905100306 | 76 | 108 | 0.0 | 0.0 | 0.00 | 0.00 | 0.00 | 94 | 1015.4 |
| 20260905095804 | 76 | 111 | 0.0 | 0.0 | 0.00 | 0.00 | 0.00 | 94 | 1015.5 |
| 20260905095259 | 76 | 114 | 0.0 | 0.0 | 0.00 | 0.00 | 0.00 | 94 | 1015.4 |
| 20260905094754 | 76 | 97 | 0.0 | 0.0 | 0.00 | 0.00 | 0.00 | 94 | 1015.5 |
| 20260905094250 | 76 | 111 | 0.0 | 0.0 | 0.00 | 0.00 | 0.00 | 94 | 1015.5 |
| 20260905093748 | 76 | 114 | 0.0 | 0.0 | 0.00 | 0.00 | 0.00 | 94 | 1015.5 |
| 20260905093244 | 76 | 114 | 0.0 | 0.0 | 0.00 | 0.00 | 0.00 | 94 | 1015.4 |
| 20260905092739 | 76 | 119 | 0.0 | 0.0 | 0.00 | 0.00 | 0.00 | 94 | 1015.2 |
| 20260905092235 | 76 | 109 | 0.0 | 0.0 | 0.00 | 0.00 | 0.00 | 94 | 1015.2 |
| 20260905091735 | 76 | 113 | 0.0 | 0.0 | 0.00 | 0.00 | 0.00 | 94 | 1015.4 |
| 20260905091229 | 76 | 114 | 0.0 | 0.0 | 0.00 | 0.00 | 0.00 | 94 | 1015.5 |
| 20260905090723 | 76 | 114 | 0.0 | 0.0 | 0.00 | 0.00 | 0.00 | 94 | 1015.3 |
| 20260905090219 | 76 | 114 | 0.0 | 0.0 | 0.00 | 0.00 | 0.00 | 94 | 1015.2 |
| 20260905085718 | 76 | 120 | 0.0 | 0.0 | 0.00 | 0.00 | 0.00 | 94 | 1015.5 |
| 20260905085213 | 76 | 114 | 0.0 | 0.0 | 0.00 | 0.00 | 0.00 | 94 | 1015.2 |
| 20260905084712 | 76 | 110 | 0.0 | 0.0 | 0.00 | 0.00 | 0.00 | 94 | 1015.3 |
| 20260905084206 | 76 | 112 | 0.0 | 0.0 | 0.00 | 0.00 | 0.00 | 94 | 1015.2 |
| 20260905083701 | 77 | 105 | 0.0 | 0.0 | 0.00 | 0.00 | 0.00 | 94 | 1015.3 |
| 20260905083158 | 77 | 116 | 0.0 | 0.0 | 0.00 | 0.00 | 0.00 | 94 | 1015.3 |
| 20260905082653 | 77 | 117 | 0.0 | 0.0 | 0.00 | 0.00 | 0.00 | 94 | 1015.4 |
| 20260905082148 | 77 | 110 | 0.0 | 0.0 | 0.00 | 0.00 | 0.00 | 94 | 1015.2 |
| 20260905081643 | 77 | 112 | 0.0 | 0.0 | 0.00 | 0.00 | 0.00 | 94 | 1015.1 |
| 20260905081138 | 77 | 103 | 0.0 | 0.0 | 0.00 | 0.00 | 0.00 | 94 | 1015.3 |
| 20260905080632 | 77 | 112 | 0.0 | 0.0 | 0.00 | 0.00 | 0.00 | 94 | 1015.1 |
| 20260905080127 | 77 | 104 | 0.0 | 0.0 | 0.00 | 0.00 | 0.00 | 94 | 1015.1 |
| 20260905075626 | 77 | 118 | 0.0 | 0.0 | 0.00 | 0.00 | 0.00 | 94 | 1014.9 |
| 20260905075125 | 77 | 123 | 0.0 | 0.0 | 0.00 | 0.00 | 0.00 | 94 | 1015.2 |
| 20260905074625 | 77 | 114 | 0.0 | 0.0 | 0.00 | 0.00 | 0.00 | 94 | 1015.2 |
| 20260905074120 | 77 | 120 | 0.0 | 0.0 | 0.00 | 0.00 | 0.00 | 94 | 1015.1 |
| 20260905073616 | 77 | 116 | 0.0 | 0.0 | 0.00 | 0.00 | 0.00 | 94 | 1015.1 |
| 20260905073112 | 77 | 113 | 0.0 | 0.0 | 0.00 | 0.00 | 0.00 | 94 | 1015.3 |
| 20260905072611 | 77 | 120 | 0.0 | 0.0 | 0.00 | 0.00 | 0.00 | 94 | 1015.3 |
| 20260905072106 | 77 | 116 | 0.0 | 0.0 | 0.00 | 0.00 | 0.00 | 94 | 1015.2 |
| 20260905071603 | 77 | 116 | 0.0 | 0.0 | 0.00 | 0.00 | 0.00 | 94 | 1015.2 |
| 20260905071103 | 77 | 113 | 0.0 | 0.0 | 0.00 | 0.00 | 0.00 | 94 | 1015.1 |
| 20260905070558 | 77 | 116 | 0.0 | 0.0 | 0.00 | 0.00 | 0.00 | 94 | 1015.3 |
| 20260905070054 | 77 | 115 | 0.0 | 0.0 | 0.00 | 0.00 | 0.00 | 94 | 1015.2 |
| 20260905065552 | 77 | 111 | 0.0 | 0.0 | 0.00 | 0.00 | 0.00 | 94 | 1015.1 |
| 20260905065047 | 77 | 114 | 0.0 | 0.0 | 0.00 | 0.00 | 0.00 | 94 | 1015.1 |
| 20260905064542 | 77 | 109 | 0.0 | 0.0 | 0.00 | 0.00 | 0.00 | 94 | 1015.0 |
| 20260905064038 | 77 | 115 | 0.0 | 0.0 | 0.00 | 0.00 | 0.00 | 94 | 1015.2 |
| 20260905063536 | 77 | 113 | 0.0 | 0.0 | 0.00 | 0.00 | 0.00 | 94 | 1015.1 |
| 20260905063033 | 77 | 118 | 0.0 | 0.0 | 0.00 | 0.00 | 0.00 | 94 | 1015.2 |
| 20260905062532 | 77 | 111 | 0.0 | 0.0 | 0.00 | 0.00 | 0.00 | 94 | 1015.1 |
| 20260905062027 | 77 | 110 | 0.0 | 0.0 | 0.00 | 0.00 | 0.00 | 94 | 1015.1 |
| 20260905061522 | 77 | 113 | 0.0 | 0.0 | 0.00 | 0.00 | 0.00 | 94 | 1015.2 |
| 20260905061021 | 77 | 113 | 0.0 | 0.0 | 0.00 | 0.00 | 0.00 | 94 | 1014.9 |
| 20260905060518 | 77 | 136 | 1.0 | 2.0 | 0.00 | 0.00 | 0.00 | 94 | 1015.0 |
| 20260905060013 | 77 | 116 | 0.0 | 0.0 | 0.00 | 0.00 | 0.00 | 94 | 1015.0 |
| 20260905055511 | 77 | 137 | 0.0 | 0.0 | 0.00 | 0.00 | 0.00 | 94 | 1015.2 |
| 20260905055006 | 77 | 130 | 0.0 | 0.0 | 0.00 | 0.00 | 0.00 | 94 | 1015.1 |
| 20260905054502 | 77 | 111 | 0.0 | 0.0 | 0.00 | 0.00 | 0.00 | 94 | 1015.1 |
| 20260905053957 | 77 | 117 | 0.0 | 0.0 | 0.00 | 0.00 | 0.00 | 94 | 1015.0 |
| 20260905053452 | 77 | 113 | 0.0 | 0.0 | 0.00 | 0.00 | 0.00 | 94 | 1015.1 |
| 20260905052948 | 77 | 119 | 0.0 | 0.0 | 0.00 | 0.00 | 0.00 | 94 | 1015.2 |
| 20260905052447 | 77 | 115 | 0.0 | 0.0 | 0.00 | 0.00 | 0.00 | 94 | 1015.2 |
| 20260905051947 | 77 | 118 | 0.0 | 0.0 | 0.00 | 0.00 | 0.00 | 94 | 1015.2 |
| 20260905051442 | 76 | 124 | 0.0 | 0.0 | 0.00 | 0.00 | 0.00 | 94 | 1015.4 |
| 20260905050939 | 76 | 107 | 0.0 | 0.0 | 0.00 | 0.00 | 0.00 | 94 | 1015.4 |
| 20260905050435 | 76 | 123 | 0.0 | 0.0 | 0.00 | 0.00 | 0.00 | 94 | 1015.5 |
| 20260905045931 | 76 | 121 | 0.0 | 0.0 | 0.00 | 0.16 | 0.16 | 94 | 1015.4 |
| 20260905045425 | 76 | 117 | 0.0 | 0.0 | 0.00 | 0.16 | 0.16 | 94 | 1015.6 |
| 20260905044920 | 76 | 117 | 0.0 | 0.0 | 0.00 | 0.16 | 0.16 | 94 | 1015.8 |
| 20260905044410 | 76 | 121 | 0.0 | 0.0 | 0.00 | 0.16 | 0.16 | 94 | 1015.9 |
| 20260905043909 | 76 | 116 | 0.0 | 0.0 | 0.00 | 0.16 | 0.16 | 94 | 1015.9 |
| 20260905043404 | 76 | 117 | 0.0 | 0.0 | 0.00 | 0.16 | 0.16 | 94 | 1016.0 |
| 20260905042904 | 76 | 130 | 0.0 | 0.0 | 0.00 | 0.16 | 0.16 | 94 | 1016.0 |
| 20260905042358 | 76 | 117 | 0.0 | 0.0 | 0.00 | 0.16 | 0.16 | 94 | 1016.0 |
| 20260905041853 | 76 | 115 | 0.0 | 0.0 | 0.00 | 0.16 | 0.16 | 94 | 1016.1 |
| 20260905041349 | 76 | 110 | 0.0 | 0.0 | 0.00 | 0.16 | 0.16 | 94 | 1016.2 |
| 20260905040844 | 76 | 112 | 0.0 | 0.0 | 0.00 | 0.16 | 0.16 | 94 | 1016.1 |
| 20260905040343 | 76 | 109 | 0.0 | 0.0 | 0.00 | 0.16 | 0.16 | 94 | 1016.3 |
| 20260905035842 | 76 | 112 | 0.0 | 0.0 | 0.00 | 0.16 | 0.16 | 94 | 1016.1 |
| 20260905035338 | 76 | 106 | 0.0 | 0.0 | 0.00 | 0.16 | 0.16 | 94 | 1016.2 |
| 20260905034834 | 76 | 112 | 0.0 | 0.0 | 0.00 | 0.16 | 0.16 | 94 | 1016.4 |
| 20260905034330 | 76 | 111 | 0.0 | 0.0 | 0.00 | 0.16 | 0.16 | 94 | 1016.6 |
| 20260905033828 | 76 | 121 | 0.0 | 0.0 | 0.00 | 0.16 | 0.16 | 94 | 1016.6 |
| 20260905033324 | 76 | 113 | 0.0 | 0.0 | 0.00 | 0.16 | 0.16 | 94 | 1016.6 |
| 20260905032823 | 76 | 111 | 0.0 | 0.0 | 0.00 | 0.16 | 0.16 | 94 | 1016.5 |
| 20260905032319 | 76 | 117 | 0.0 | 0.0 | 0.00 | 0.16 | 0.16 | 94 | 1016.5 |
| 20260905031814 | 76 | 116 | 0.0 | 0.0 | 0.00 | 0.16 | 0.16 | 93 | 1016.5 |
| 20260905031310 | 76 | 115 | 0.0 | 0.0 | 0.00 | 0.16 | 0.16 | 93 | 1016.6 |
| 20260905030805 | 76 | 109 | 0.0 | 0.0 | 0.00 | 0.16 | 0.16 | 93 | 1016.5 |
| 20260905030300 | 76 | 117 | 0.0 | 0.0 | 0.00 | 0.16 | 0.16 | 93 | 1016.5 |
| 20260905025759 | 76 | 120 | 0.0 | 0.0 | 0.00 | 0.16 | 0.16 | 93 | 1016.4 |
| 20260905025255 | 76 | 121 | 0.0 | 0.0 | 0.00 | 0.16 | 0.16 | 93 | 1016.6 |
| 20260905024751 | 76 | 123 | 0.0 | 0.0 | 0.00 | 0.16 | 0.16 | 94 | 1016.3 |
| 20260905024246 | 76 | 121 | 0.0 | 0.0 | 0.00 | 0.16 | 0.16 | 94 | 1016.7 |
| 20260905023741 | 76 | 113 | 0.0 | 1.0 | 0.00 | 0.16 | 0.16 | 94 | 1016.7 |
| 20260905023236 | 76 | 117 | 0.0 | 0.0 | 0.00 | 0.16 | 0.16 | 94 | 1016.5 |
| 20260905022735 | 76 | 125 | 0.0 | 0.0 | 0.00 | 0.16 | 0.16 | 94 | 1016.5 |
| 20260905022231 | 76 | 117 | 0.0 | 0.0 | 0.00 | 0.16 | 0.16 | 94 | 1016.3 |
| 20260905021725 | 76 | 117 | 0.0 | 0.0 | 0.00 | 0.16 | 0.16 | 94 | 1016.4 |
| 20260905021220 | 76 | 124 | 0.0 | 0.0 | 0.00 | 0.16 | 0.16 | 94 | 1016.2 |
| 20260905020714 | 76 | 117 | 0.0 | 0.0 | 0.00 | 0.16 | 0.16 | 94 | 1016.3 |
| 20260905020209 | 76 | 109 | 0.0 | 0.0 | 0.00 | 0.16 | 0.16 | 94 | 1016.3 |